DLH3RJ LGAV-EDDF

Flight info

Callsign DLH3RJ
Flight time N/A
Altitude 38000
Route KOR UL53 IXONI DCT YNN UL611 TUMBO DCT OVVER DCT RODON DCT VAKSU DCT MONFA DCT SOTOV DCT NIKWU Q163 ETASA T163 SPESA SPESA5B
Aircraft A21N/M-SDE2E3FGIJ1LORWXYZ/HB1

Departure

Time 2026-05-06 06:37
Airport Athens Eleftherios Venizelos International Airport (LGAV)

Arrival

Time N/A
Airport Frankfurt Main Airport (EDDF)
Time Latitude Longitude Altitude Speed Heading
2026-05-06 06:21 37.93073 23.94228 307 ft 0 kts 37°
2026-05-06 06:30 37.93062 23.94217 308 ft 4 kts 37°
2026-05-06 06:30 37.93045 23.94201 307 ft 4 kts 37°
2026-05-06 06:31 37.93024 23.94180 307 ft 4 kts 45°
2026-05-06 06:31 37.93010 23.94154 307 ft 5 kts 83°
2026-05-06 06:31 37.93017 23.94131 307 ft 5 kts 127°
2026-05-06 06:31 37.93026 23.94116 309 ft 1 kts 127°
2026-05-06 06:33 37.93016 23.94132 307 ft 5 kts 127°
2026-05-06 06:34 37.92984 23.94186 307 ft 10 kts 127°
2026-05-06 06:34 37.92931 23.94273 307 ft 15 kts 127°
2026-05-06 06:34 37.92861 23.94390 307 ft 18 kts 126°
2026-05-06 06:34 37.92793 23.94452 307 ft 12 kts 186°
2026-05-06 06:35 37.92709 23.94388 308 ft 16 kts 217°
2026-05-06 06:35 37.92614 23.94299 310 ft 17 kts 214°
2026-05-06 06:35 37.92515 23.94205 309 ft 19 kts 219°
2026-05-06 06:35 37.92433 23.94169 310 ft 13 kts 159°
2026-05-06 06:36 37.92413 23.94287 312 ft 16 kts 90°
2026-05-06 06:36 37.92449 23.94419 314 ft 18 kts 42°
2026-05-06 06:36 37.92550 23.94515 311 ft 19 kts 37°
2026-05-06 06:36 37.92746 23.94699 307 ft 68 kts 36°
2026-05-06 06:37 37.93317 23.95242 299 ft 134 kts 37°
2026-05-06 06:37 37.94199 23.96087 308 ft 179 kts 37°
2026-05-06 06:37 37.95199 23.97023 900 ft 178 kts 36°
2026-05-06 06:37 37.96207 23.97984 1527 ft 185 kts 37°
2026-05-06 06:38 37.97261 23.99009 2073 ft 198 kts 36°
2026-05-06 06:38 37.98402 24.00113 2691 ft 216 kts 36°
2026-05-06 06:38 37.99656 24.01321 3269 ft 238 kts 36°
2026-05-06 06:38 38.01014 24.02626 3962 ft 250 kts 36°
2026-05-06 06:39 38.02431 24.03901 4688 ft 262 kts 25°
2026-05-06 06:39 38.04248 24.04436 5417 ft 268 kts 357°
2026-05-06 06:39 38.06041 24.03851 6319 ft 269 kts 330°
2026-05-06 06:39 38.07451 24.02293 7197 ft 271 kts 307°
2026-05-06 06:40 38.08505 24.00296 8078 ft 274 kts 303°
2026-05-06 06:40 38.09527 23.98242 8953 ft 277 kts 303°
2026-05-06 06:40 38.10579 23.96179 9828 ft 280 kts 304°
2026-05-06 06:40 38.11661 23.94096 10493 ft 290 kts 304°
2026-05-06 06:41 38.12826 23.91888 10853 ft 310 kts 304°
2026-05-06 06:41 38.14057 23.89550 11303 ft 325 kts 304°
2026-05-06 06:41 38.15325 23.87145 12038 ft 330 kts 304°
2026-05-06 06:41 38.16610 23.84716 12887 ft 332 kts 304°
2026-05-06 06:42 38.17908 23.82272 13714 ft 335 kts 304°
2026-05-06 06:42 38.19220 23.79796 14472 ft 338 kts 304°
2026-05-06 06:42 38.20535 23.77311 15244 ft 340 kts 304°
2026-05-06 06:42 38.21856 23.74813 16017 ft 342 kts 305°
2026-05-06 06:43 38.23188 23.72307 16794 ft 343 kts 305°
2026-05-06 06:43 38.24525 23.69787 17567 ft 345 kts 305°
2026-05-06 06:43 38.25866 23.67252 18339 ft 346 kts 305°
2026-05-06 06:43 38.27217 23.64695 18980 ft 349 kts 305°
2026-05-06 06:44 38.28575 23.62124 19593 ft 351 kts 305°
2026-05-06 06:44 38.29941 23.59531 20191 ft 354 kts 305°
2026-05-06 06:44 38.31320 23.56915 20781 ft 357 kts 305°
2026-05-06 06:44 38.32709 23.54279 21356 ft 360 kts 305°